When you browse on this site, cookies collect data to enhance your experience and personalize the content and advertising you see.
Visit our Privacy Policy to learn more. By continuing to use the site, you agree to this use of cookies and data.
  • In Hungary
  • List of Countries
  • For 7 days
  • Water Temperature
  • Satellite Maps
  • Weather Map
  • News
  • Weather Widgets
  • user-avatar
    Login

    Hourly Weather Beersel

    Today, 21 November, Wednesday

    Time Temperature Precipitation Wind Pressure Humidity
    00:00 0°C° 0 mm 3 mps 750 mmHg 81%
    01:00 0°C° 0 mm 3 mps 750 mmHg 82%
    02:00 0°C° 0 mm 3 mps 751 mmHg 83%
    03:00 +1°C° 0 mm 2 mps 751 mmHg 84%
    04:00 +1°C° 0 mm 2 mps 752 mmHg 85%
    05:00 -1°C° 0 mm 2 mps 752 mmHg 87%
    06:00 -1°C° 0 mm 2 mps 753 mmHg 88%
    07:00 +1°C° 0 mm 2 mps 753 mmHg 85%
    08:00 +2°C° 0 mm 1 mps 754 mmHg 81%
    09:00 +3°C° 0 mm 1 mps 754 mmHg 78%
    10:00 +4°C° 0 mm 1 mps 755 mmHg 75%
    11:00 +5°C° 0 mm 1 mps 755 mmHg 73%
    12:00 +5°C° 0 mm 2 mps 755 mmHg 71%
    13:00 +4°C° 0 mm 2 mps 755 mmHg 73%
    14:00 +4°C° 0 mm 2 mps 755 mmHg 75%
    15:00 +4°C° 0 mm 2 mps 755 mmHg 77%
    16:00 +4°C° 0 mm 2 mps 756 mmHg 79%
    17:00 +3°C° 0 mm 2 mps 756 mmHg 81%
    18:00 +2°C° 0 mm 2 mps 756 mmHg 83%
    19:00 +2°C° 0 mm 2 mps 756 mmHg 84%
    20:00 +2°C° 0 mm 2 mps 757 mmHg 84%
    21:00 +2°C° 0 mm 2 mps 757 mmHg 85%
    22:00 +2°C° 0 mm 2 mps 757 mmHg 86%
    23:00 +2°C° 0 mm 1 mps 757 mmHg 87%

    Tomorrow, 22 November, Thursday

    Time Temperature Precipitation Wind Pressure Humidity
    00:00 +2°C° 0 mm 1 mps 757 mmHg 88%
    01:00 +2°C° 0 mm 1 mps 757 mmHg 88%
    02:00 +2°C° 0 mm 1 mps 757 mmHg 89%
    03:00 +1°C° 0 mm 1 mps 757 mmHg 89%
    04:00 +1°C° 0 mm 1 mps 757 mmHg 90%
    05:00 +1°C° 0 mm 1 mps 757 mmHg 90%
    06:00 +1°C° 0 mm 1 mps 757 mmHg 90%
    07:00 +1°C° 0 mm 2 mps 757 mmHg 87%
    08:00 +1°C° 0 mm 2 mps 757 mmHg 84%
    09:00 +2°C° 0 mm 2 mps 757 mmHg 80%
    10:00 +4°C° 0 mm 2 mps 757 mmHg 76%
    11:00 +5°C° 0 mm 2 mps 757 mmHg 71%
    12:00 +6°C° 0 mm 2 mps 757 mmHg 67%
    13:00 +6°C° 0 mm 2 mps 757 mmHg 70%
    14:00 +7°C° 0 mm 1 mps 757 mmHg 73%
    15:00 +6°C° 0 mm 1 mps 757 mmHg 76%
    16:00 +6°C° 0 mm 1 mps 757 mmHg 80%
    17:00 +4°C° 0 mm 2 mps 757 mmHg 83%
    18:00 +3°C° 0 mm 2 mps 757 mmHg 87%
    19:00 +3°C° 0 mm 2 mps 757 mmHg 88%
    20:00 +3°C° 0 mm 2 mps 757 mmHg 89%
    21:00 +2°C° 0 mm 2 mps 757 mmHg 90%
    22:00 +3°C° 0 mm 2 mps 757 mmHg 91%
    23:00 +3°C° 0 mm 2 mps 757 mmHg 91%

    Day after tomorrow, 23 November, Friday

    Time Temperature Precipitation Wind Pressure Humidity
    00:00 +3°C° 0 mm 2 mps 757 mmHg 92%
    01:00 +3°C° 0.1 mm 2 mps 757 mmHg 92%
    02:00 +3°C° 0.1 mm 2 mps 757 mmHg 92%
    03:00 +3°C° 0.1 mm 2 mps 757 mmHg 91%
    04:00 +3°C° 0.1 mm 2 mps 756 mmHg 92%
    05:00 +2°C° 0.1 mm 3 mps 756 mmHg 92%
    06:00 +2°C° 0.1 mm 3 mps 756 mmHg 93%
    07:00 +3°C° 0.1 mm 3 mps 756 mmHg 91%
    08:00 +4°C° 0.1 mm 3 mps 756 mmHg 90%
    09:00 +4°C° 0.1 mm 3 mps 756 mmHg 88%
    10:00 +7°C° 0 mm 3 mps 756 mmHg 85%
    11:00 +8°C° 0 mm 2 mps 756 mmHg 81%
    12:00 +9°C° 0 mm 2 mps 755 mmHg 78%
    13:00 +9°C° 0 mm 2 mps 755 mmHg 80%
    14:00 +8°C° 0 mm 2 mps 755 mmHg 83%
    15:00 +9°C° 0 mm 1 mps 754 mmHg 86%
    16:00 +7°C° 0 mm 2 mps 754 mmHg 88%
    17:00 +7°C° 0 mm 2 mps 754 mmHg 89%
    18:00 +6°C° 0 mm 2 mps 754 mmHg 91%
    19:00 +6°C° 0 mm 2 mps 754 mmHg 91%
    20:00 +6°C° 0 mm 2 mps 754 mmHg 91%
    21:00 +5°C° 0 mm 2 mps 754 mmHg 91%
    22:00 +5°C° 0.4 mm 2 mps 754 mmHg 92%
    23:00 +5°C° 0.4 mm 2 mps 753 mmHg 92%

    24 November, Saturday

    Time Temperature Precipitation Wind Pressure Humidity
    00:00 +5°C° 0.4 mm 2 mps 753 mmHg 93%
    01:00 +5°C° 0.5 mm 2 mps 753 mmHg 94%
    02:00 +5°C° 0.5 mm 2 mps 753 mmHg 95%
    03:00 +5°C° 0.5 mm 2 mps 753 mmHg 96%
    04:00 +5°C° 0.1 mm 2 mps 753 mmHg 96%
    05:00 +5°C° 0.1 mm 2 mps 753 mmHg 96%
    06:00 +5°C° 0.1 mm 2 mps 752 mmHg 96%
    07:00 +4°C° 0 mm 3 mps 753 mmHg 94%
    08:00 +5°C° 0 mm 3 mps 753 mmHg 92%
    09:00 +5°C° 0 mm 4 mps 753 mmHg 91%
    10:00 +6°C° 0 mm 4 mps 753 mmHg 88%
    11:00 +7°C° 0 mm 4 mps 753 mmHg 85%
    12:00 +8°C° 0 mm 5 mps 753 mmHg 82%
    13:00 +7°C° 0 mm 4 mps 752 mmHg 83%
    14:00 +7°C° 0 mm 4 mps 752 mmHg 85%
    15:00 +7°C° 0 mm 4 mps 752 mmHg 86%
    16:00 +8°C° 0.8 mm 3 mps 752 mmHg 89%
    17:00 +7°C° 0.8 mm 3 mps 752 mmHg 91%
    18:00 +7°C° 0.8 mm 3 mps 752 mmHg 93%
    19:00 +7°C° 1.1 mm 3 mps 752 mmHg 93%
    20:00 +7°C° 1.1 mm 3 mps 752 mmHg 93%
    21:00 +7°C° 1.1 mm 3 mps 752 mmHg 92%
    22:00 +7°C° 0.1 mm 3 mps 752 mmHg 93%
    23:00 +7°C° 0.1 mm 3 mps 752 mmHg 93%

    25 November, Sunday

    Time Temperature Precipitation Wind Pressure Humidity
    00:00 +7°C° 0.1 mm 2 mps 751 mmHg 93%
    01:00 +7°C° 0.1 mm 3 mps 751 mmHg 93%
    02:00 +7°C° 0.1 mm 3 mps 751 mmHg 93%
    03:00 +7°C° 0.1 mm 3 mps 751 mmHg 93%
    04:00 +6°C° 0.3 mm 2 mps 751 mmHg 92%
    05:00 +6°C° 0.3 mm 2 mps 750 mmHg 92%
    06:00 +6°C° 0.3 mm 2 mps 750 mmHg 92%
    07:00 +6°C° 0.4 mm 2 mps 750 mmHg 90%
    08:00 +6°C° 0.4 mm 2 mps 750 mmHg 88%
    09:00 +6°C° 0.4 mm 2 mps 750 mmHg 87%
    10:00 +7°C° 0.1 mm 3 mps 749 mmHg 84%
    11:00 +7°C° 0.1 mm 3 mps 749 mmHg 81%
    12:00 +8°C° 0.1 mm 3 mps 749 mmHg 78%
    13:00 +8°C° 0 mm 3 mps 748 mmHg 80%
    14:00 +8°C° 0 mm 3 mps 748 mmHg 81%
    15:00 +8°C° 0 mm 3 mps 747 mmHg 82%
    16:00 +7°C° 0 mm 3 mps 747 mmHg 83%
    17:00 +6°C° 0 mm 4 mps 747 mmHg 84%
    18:00 +6°C° 0 mm 4 mps 746 mmHg 85%
    19:00 +6°C° 0.3 mm 4 mps 746 mmHg 86%
    20:00 +6°C° 0.3 mm 4 mps 746 mmHg 86%
    21:00 +6°C° 0.3 mm 4 mps 746 mmHg 87%
    22:00 +6°C° 0.5 mm 4 mps 745 mmHg 88%
    23:00 +6°C° 0.5 mm 4 mps 745 mmHg 89%

    26 November, Monday

    Time Temperature Precipitation Wind Pressure Humidity
    00:00 +6°C° 0.5 mm 4 mps 744 mmHg 90%
    01:00 +6°C° 0.3 mm 4 mps 744 mmHg 91%
    02:00 +7°C° 0.3 mm 3 mps 744 mmHg 91%
    03:00 +7°C° 0.3 mm 3 mps 744 mmHg 92%
    04:00 +7°C° 0.1 mm 3 mps 744 mmHg 92%
    05:00 +7°C° 0.1 mm 3 mps 744 mmHg 92%
    06:00 +7°C° 0.1 mm 3 mps 744 mmHg 92%
    07:00 +6°C° 0.1 mm 4 mps 744 mmHg 91%
    08:00 +6°C° 0.1 mm 4 mps 744 mmHg 90%
    09:00 +6°C° 0.1 mm 4 mps 744 mmHg 88%
    10:00 +6°C° 0.1 mm 4 mps 744 mmHg 86%
    11:00 +7°C° 0.1 mm 4 mps 744 mmHg 84%
    12:00 +7°C° 0.1 mm 4 mps 744 mmHg 82%
    13:00 +8°C° 0.4 mm 3 mps 744 mmHg 84%
    14:00 +8°C° 0.4 mm 3 mps 744 mmHg 87%
    15:00 +7°C° 0.4 mm 2 mps 744 mmHg 89%
    16:00 +7°C° 0.6 mm 2 mps 744 mmHg 90%
    17:00 +7°C° 0.6 mm 2 mps 744 mmHg 91%
    18:00 +7°C° 0.6 mm 2 mps 744 mmHg 92%
    19:00 +7°C° 0.2 mm 2 mps 745 mmHg 93%
    20:00 +6°C° 0.2 mm 2 mps 745 mmHg 93%
    21:00 +6°C° 0.2 mm 2 mps 745 mmHg 93%
    22:00 +6°C° 0.1 mm 2 mps 745 mmHg 94%
    23:00 +6°C° 0.1 mm 2 mps 746 mmHg 95%
    Show more